Tracking 35275 objects as of 8-Sep-2026
HD Live streaming from Space Station
objects crossing your sky now

STARLINK-32744

Track STARLINK-32744 now!
10-day predictions
STARLINK-32744 is classified as:


NORAD ID: 62509
Int'l Code: 2025-003Y
Launch date: January 6, 2025
Source: United States (US)
Launch site: AIR FORCE EASTERN TEST RANGE (AFETR)
Your satellite tracking list
Your tracking list is empty




NASA's NSSDC Master Catalog

Two Line Element Set (TLE):
1 62509U 25003Y   26251.54668968  .00023956  00000-0  87701-3 0  9991
2 62509  43.0022 336.5984 0001603 279.3480  80.7190 15.27587735 94510
Source of the keplerian elements: AFSPC